Location: Unspecified
(0.0000°N, 0.0000°E)
Time: 07:13:45
(UTC+00:00)

Vanguard 2 Rocket - Pass Details

Date: 12 October 2023
Orbit: 552 x 3312 km, 32.9° (Epoch: 06 December)

Event Time Altitude Azimuth Distance (km) Brightness Sun altitude
Rises 10:37:47 0° 323° (NW) 5,813 10.8 71.3°
Reaches altitude 10° 10:42:51 10° 339° (NNW) 5,248 10.8 72.5°
Maximum altitude 10:54:39 22° 24° (NNE) 4,993 11.0 75.1°
Drops below altitude 10° 11:08:28 10° 68° (ENE) 6,263 11.4 78.0°
Sets 11:15:19 0° 82° (E) 7,196 11.6 79.3°
